Year,Month,Day,Hour,Minute,Value (Times are PST for temperature in C)
2011,03,24,00,00,1.70
2011,03,24,00,01,1.80
2011,03,24,00,02,1.80
2011,03,24,00,03,1.80
2011,03,24,00,04,1.90
2011,03,24,00,05,1.90
2011,03,24,00,06,1.90
2011,03,24,00,07,1.90
2011,03,24,00,08,1.80
2011,03,24,00,09,1.80
2011,03,24,00,10,1.80
2011,03,24,00,11,1.80
2011,03,24,00,12,1.80
2011,03,24,00,13,1.80
2011,03,24,00,14,1.80
2011,03,24,00,15,1.80
2011,03,24,00,16,1.80
2011,03,24,00,17,1.80
2011,03,24,00,18,1.80
2011,03,24,00,19,1.80
2011,03,24,00,20,1.80
2011,03,24,00,21,1.80
2011,03,24,00,22,1.80
2011,03,24,00,23,1.70
2011,03,24,00,24,1.70
2011,03,24,00,25,1.70
2011,03,24,00,26,1.70
2011,03,24,00,27,1.60
2011,03,24,00,28,1.60
2011,03,24,00,29,1.60
2011,03,24,00,30,1.60
2011,03,24,00,31,1.60
2011,03,24,00,32,1.60
2011,03,24,00,33,1.60
2011,03,24,00,34,1.60
2011,03,24,00,35,1.60
2011,03,24,00,36,1.50
2011,03,24,00,37,1.50
2011,03,24,00,38,1.50
2011,03,24,00,39,1.40
2011,03,24,00,40,1.40
2011,03,24,00,41,1.40
2011,03,24,00,42,1.30
2011,03,24,00,43,1.30
2011,03,24,00,44,1.30
2011,03,24,00,45,1.30
2011,03,24,00,46,1.30
2011,03,24,00,47,1.30
2011,03,24,00,48,1.30
2011,03,24,00,49,1.30
2011,03,24,00,50,1.30
2011,03,24,00,51,1.30
2011,03,24,00,52,1.30
2011,03,24,00,53,1.30
2011,03,24,00,54,1.30
2011,03,24,00,55,1.30
2011,03,24,00,56,1.30
2011,03,24,00,57,1.30
2011,03,24,00,58,1.30
2011,03,24,00,59,1.30
2011,03,24,01,00,1.30
2011,03,24,01,01,1.30
2011,03,24,01,02,1.40
2011,03,24,01,03,1.40
2011,03,24,01,04,1.40
2011,03,24,01,05,1.40
2011,03,24,01,06,1.40
2011,03,24,01,07,1.40
2011,03,24,01,08,1.40
2011,03,24,01,09,1.50
2011,03,24,01,10,1.40
2011,03,24,01,11,1.40
2011,03,24,01,12,1.40
2011,03,24,01,13,1.40
2011,03,24,01,14,1.40
2011,03,24,01,15,1.40
2011,03,24,01,16,1.40
2011,03,24,01,17,1.40
2011,03,24,01,18,1.30
2011,03,24,01,19,1.30
2011,03,24,01,20,1.30
2011,03,24,01,21,1.30
2011,03,24,01,22,1.30
2011,03,24,01,23,1.30
2011,03,24,01,24,1.30
2011,03,24,01,25,1.30
2011,03,24,01,26,1.30
2011,03,24,01,27,1.30
2011,03,24,01,28,1.30
2011,03,24,01,29,1.30
2011,03,24,01,30,1.30
2011,03,24,01,31,1.30
2011,03,24,01,32,1.30
2011,03,24,01,33,1.30
2011,03,24,01,34,1.30
2011,03,24,01,35,1.30
2011,03,24,01,36,1.30
2011,03,24,01,37,1.30
2011,03,24,01,38,1.30
2011,03,24,01,39,1.30
2011,03,24,01,40,1.30
2011,03,24,01,41,1.30
2011,03,24,01,42,1.30
2011,03,24,01,43,1.30
2011,03,24,01,44,1.30
2011,03,24,01,45,1.30
2011,03,24,01,46,1.30
2011,03,24,01,47,1.30
2011,03,24,01,48,1.30
2011,03,24,01,49,1.30
2011,03,24,01,50,1.40
2011,03,24,01,51,1.50
2011,03,24,01,52,1.50
2011,03,24,01,53,1.50
2011,03,24,01,54,1.60
2011,03,24,01,55,1.60
2011,03,24,01,56,1.60
2011,03,24,01,57,1.60
2011,03,24,01,58,1.60
2011,03,24,01,59,1.60
2011,03,24,02,00,1.70
2011,03,24,02,01,1.70
2011,03,24,02,02,1.70
2011,03,24,02,03,1.70
2011,03,24,02,04,1.80
2011,03,24,02,05,1.80
2011,03,24,02,06,1.80
2011,03,24,02,07,1.80
2011,03,24,02,08,1.90
2011,03,24,02,09,1.90
2011,03,24,02,10,2.00
2011,03,24,02,11,2.00
2011,03,24,02,12,2.10
2011,03,24,02,13,2.10
2011,03,24,02,14,2.10
2011,03,24,02,15,2.10
2011,03,24,02,16,2.10
2011,03,24,02,17,2.10
2011,03,24,02,18,2.10
2011,03,24,02,19,2.10
2011,03,24,02,20,2.10
2011,03,24,02,21,2.10
2011,03,24,02,22,2.10
2011,03,24,02,23,2.10
2011,03,24,02,24,2.10
2011,03,24,02,25,2.10
2011,03,24,02,26,2.10
2011,03,24,02,27,2.10
2011,03,24,02,28,2.10
2011,03,24,02,29,2.10
2011,03,24,02,30,2.10
2011,03,24,02,31,2.10
2011,03,24,02,32,2.10
2011,03,24,02,33,2.10
2011,03,24,02,34,2.10
2011,03,24,02,35,2.10
2011,03,24,02,36,2.10
2011,03,24,02,37,2.10
2011,03,24,02,38,2.00
2011,03,24,02,39,2.00
2011,03,24,02,40,2.00
2011,03,24,02,41,1.90
2011,03,24,02,42,1.90
2011,03,24,02,43,1.90
2011,03,24,02,44,1.90
2011,03,24,02,45,1.90
2011,03,24,02,46,1.80
2011,03,24,02,47,1.80
2011,03,24,02,48,1.90
2011,03,24,02,49,1.90
2011,03,24,02,50,1.90
2011,03,24,02,51,1.90
2011,03,24,02,52,1.90
2011,03,24,02,53,1.90
2011,03,24,02,54,2.00
2011,03,24,02,55,2.00
2011,03,24,02,56,2.10
2011,03,24,02,57,2.10
2011,03,24,02,58,2.10
2011,03,24,02,59,2.10
2011,03,24,03,00,2.10
2011,03,24,03,01,2.10
2011,03,24,03,02,2.00
2011,03,24,03,03,2.00
2011,03,24,03,04,2.00
2011,03,24,03,05,1.90
2011,03,24,03,06,1.90
2011,03,24,03,07,1.90
2011,03,24,03,08,1.90
2011,03,24,03,09,1.80
2011,03,24,03,10,1.80
2011,03,24,03,11,1.80
2011,03,24,03,12,1.80
2011,03,24,03,13,1.80
2011,03,24,03,14,1.70
2011,03,24,03,15,1.70
2011,03,24,03,16,1.70
2011,03,24,03,17,1.70
2011,03,24,03,18,1.70
2011,03,24,03,19,1.70
2011,03,24,03,20,1.70
2011,03,24,03,21,1.70
2011,03,24,03,22,1.70
2011,03,24,03,23,1.70
2011,03,24,03,24,1.70
2011,03,24,03,25,1.70
2011,03,24,03,26,1.60
2011,03,24,03,27,1.60
2011,03,24,03,28,1.60
2011,03,24,03,29,1.60
2011,03,24,03,30,1.60
2011,03,24,03,31,1.60
2011,03,24,03,32,1.60
2011,03,24,03,33,1.60
2011,03,24,03,34,1.50
2011,03,24,03,35,1.50
2011,03,24,03,36,1.50
2011,03,24,03,37,1.40
2011,03,24,03,38,1.30
2011,03,24,03,39,1.30
2011,03,24,03,40,1.30
2011,03,24,03,41,1.30
2011,03,24,03,42,1.30
2011,03,24,03,43,1.30
2011,03,24,03,44,1.30
2011,03,24,03,45,1.30
2011,03,24,03,46,1.30
2011,03,24,03,47,1.30
2011,03,24,03,48,1.30
2011,03,24,03,49,1.30
2011,03,24,03,50,1.30
2011,03,24,03,51,1.30
2011,03,24,03,52,1.30
2011,03,24,03,53,1.30
2011,03,24,03,54,1.30
2011,03,24,03,55,1.30
2011,03,24,03,56,1.30
2011,03,24,03,57,1.30
2011,03,24,03,58,1.30
2011,03,24,03,59,1.30
2011,03,24,04,00,1.30
2011,03,24,04,01,1.30
2011,03,24,04,02,1.30
2011,03,24,04,03,1.30
2011,03,24,04,04,1.30
2011,03,24,04,05,1.30
2011,03,24,04,06,1.30
2011,03,24,04,07,1.30
2011,03,24,04,08,1.30
2011,03,24,04,09,1.30
2011,03,24,04,10,1.30
2011,03,24,04,11,1.30
2011,03,24,04,12,1.30
2011,03,24,04,13,1.30
2011,03,24,04,14,1.30
2011,03,24,04,15,1.30
2011,03,24,04,16,1.30
2011,03,24,04,17,1.30
2011,03,24,04,18,1.30
2011,03,24,04,19,1.30
2011,03,24,04,20,1.40
2011,03,24,04,21,1.40
2011,03,24,04,22,1.40
2011,03,24,04,23,1.40
2011,03,24,04,24,1.40
2011,03,24,04,25,1.40
2011,03,24,04,26,1.40
2011,03,24,04,27,1.40
2011,03,24,04,28,1.40
2011,03,24,04,29,1.40
2011,03,24,04,30,1.40
2011,03,24,04,31,1.40
2011,03,24,04,32,1.40
2011,03,24,04,33,1.40
2011,03,24,04,34,1.40
2011,03,24,04,35,1.40
2011,03,24,04,36,1.40
2011,03,24,04,37,1.40
2011,03,24,04,38,1.40
2011,03,24,04,39,1.40
2011,03,24,04,40,1.40
2011,03,24,04,41,1.40
2011,03,24,04,42,1.40
2011,03,24,04,43,1.40
2011,03,24,04,44,1.40
2011,03,24,04,45,1.40
2011,03,24,04,46,1.40
2011,03,24,04,47,1.40
2011,03,24,04,48,1.40
2011,03,24,04,49,1.40
2011,03,24,04,50,1.40
2011,03,24,04,51,1.40
2011,03,24,04,52,1.40
2011,03,24,04,53,1.50
2011,03,24,04,54,1.50
2011,03,24,04,55,1.60
2011,03,24,04,56,1.60
2011,03,24,04,57,1.60
2011,03,24,04,58,1.60
2011,03,24,04,59,1.70
2011,03,24,05,00,1.70
2011,03,24,05,01,1.70
2011,03,24,05,02,1.70
2011,03,24,05,03,1.70
2011,03,24,05,04,1.70
2011,03,24,05,05,1.70
2011,03,24,05,06,1.70
2011,03,24,05,07,1.70
2011,03,24,05,08,1.80
2011,03,24,05,09,1.80
2011,03,24,05,10,1.80
2011,03,24,05,11,1.80
2011,03,24,05,12,1.80
2011,03,24,05,13,1.80
2011,03,24,05,14,1.80
2011,03,24,05,15,1.80
2011,03,24,05,16,1.80
2011,03,24,05,17,1.80
2011,03,24,05,18,1.80
2011,03,24,05,19,1.80
2011,03,24,05,20,1.80
2011,03,24,05,21,1.90
2011,03,24,05,22,1.90
2011,03,24,05,23,1.80
2011,03,24,05,24,1.80
2011,03,24,05,25,1.80
2011,03,24,05,26,1.80
2011,03,24,05,27,1.80
2011,03,24,05,28,1.80
2011,03,24,05,29,1.90
2011,03,24,05,30,1.90
2011,03,24,05,31,1.90
2011,03,24,05,32,1.90
2011,03,24,05,33,1.80
2011,03,24,05,34,1.90
2011,03,24,05,35,1.90
2011,03,24,05,36,1.90
2011,03,24,05,37,1.90
2011,03,24,05,38,1.90
2011,03,24,05,39,1.90
2011,03,24,05,40,1.90
2011,03,24,05,41,1.90
2011,03,24,05,42,1.90
2011,03,24,05,43,1.90
2011,03,24,05,44,1.90
2011,03,24,05,45,1.90
2011,03,24,05,46,1.90
2011,03,24,05,47,1.90
2011,03,24,05,48,1.90
2011,03,24,05,49,1.90
2011,03,24,05,50,1.90
2011,03,24,05,51,1.90
2011,03,24,05,52,1.90
2011,03,24,05,53,1.90
2011,03,24,05,54,1.90
2011,03,24,05,55,1.90
2011,03,24,05,56,1.90
2011,03,24,05,57,1.90
2011,03,24,05,58,1.90
2011,03,24,05,59,2.00
2011,03,24,06,00,2.00
2011,03,24,06,01,2.00
2011,03,24,06,02,2.00
2011,03,24,06,03,2.00
2011,03,24,06,04,2.10
2011,03,24,06,05,2.10
2011,03,24,06,06,2.10
2011,03,24,06,07,2.10
2011,03,24,06,08,2.20
2011,03,24,06,09,2.20
2011,03,24,06,10,2.20
2011,03,24,06,11,2.20
2011,03,24,06,12,2.20
2011,03,24,06,13,2.20
2011,03,24,06,14,2.20
2011,03,24,06,15,2.20
2011,03,24,06,16,2.20
2011,03,24,06,17,2.20
2011,03,24,06,18,2.20
2011,03,24,06,19,2.20
2011,03,24,06,20,2.20
2011,03,24,06,21,2.20
2011,03,24,06,22,2.20
2011,03,24,06,23,2.20
2011,03,24,06,24,2.20
2011,03,24,06,25,2.20
2011,03,24,06,26,2.20
2011,03,24,06,27,2.20
2011,03,24,06,28,2.20
2011,03,24,06,29,2.20
2011,03,24,06,30,2.20
2011,03,24,06,31,2.20
2011,03,24,06,32,2.20
2011,03,24,06,33,2.20
2011,03,24,06,34,2.20
2011,03,24,06,35,2.20
2011,03,24,06,36,2.30
2011,03,24,06,37,2.30
2011,03,24,06,38,2.30
2011,03,24,06,39,2.30
2011,03,24,06,40,2.40
2011,03,24,06,41,2.40
2011,03,24,06,42,2.40
2011,03,24,06,43,2.40
2011,03,24,06,44,2.50
2011,03,24,06,45,2.50
2011,03,24,06,46,2.50
2011,03,24,06,47,2.50
2011,03,24,06,48,2.50
2011,03,24,06,49,2.50
2011,03,24,06,50,2.50
2011,03,24,06,51,2.50
2011,03,24,06,52,2.40
2011,03,24,06,53,2.40
2011,03,24,06,54,2.40
2011,03,24,06,55,2.40
2011,03,24,06,56,2.40
2011,03,24,06,57,2.40
2011,03,24,06,58,2.40
2011,03,24,06,59,2.40
2011,03,24,07,00,2.40
2011,03,24,07,01,2.40
2011,03,24,07,02,2.40
2011,03,24,07,03,2.40
2011,03,24,07,04,2.30
2011,03,24,07,05,2.30
2011,03,24,07,06,2.30
2011,03,24,07,07,2.30
2011,03,24,07,08,2.30
2011,03,24,07,09,2.30
2011,03,24,07,10,2.30
2011,03,24,07,11,2.30
2011,03,24,07,12,2.30
2011,03,24,07,13,2.30
2011,03,24,07,14,2.30
2011,03,24,07,15,2.30
2011,03,24,07,16,2.30
2011,03,24,07,17,2.30
2011,03,24,07,18,2.30
2011,03,24,07,19,2.40
2011,03,24,07,20,2.40
2011,03,24,07,21,2.40
2011,03,24,07,22,2.40
2011,03,24,07,23,2.40
2011,03,24,07,24,2.40
2011,03,24,07,25,2.40
2011,03,24,07,26,2.40
2011,03,24,07,27,2.50
2011,03,24,07,28,2.50
2011,03,24,07,29,2.50
2011,03,24,07,30,2.50
2011,03,24,07,31,2.60
2011,03,24,07,32,2.60
2011,03,24,07,33,2.60
2011,03,24,07,34,2.60
2011,03,24,07,35,2.60
2011,03,24,07,36,2.50
2011,03,24,07,37,2.50
2011,03,24,07,38,2.50
2011,03,24,07,39,2.40
2011,03,24,07,40,2.40
2011,03,24,07,41,2.30
2011,03,24,07,42,2.30
2011,03,24,07,43,2.30
2011,03,24,07,44,2.30
2011,03,24,07,45,2.30
2011,03,24,07,46,2.30
2011,03,24,07,47,2.30
2011,03,24,07,48,2.30
2011,03,24,07,49,2.30
2011,03,24,07,50,2.30
2011,03,24,07,51,2.30
2011,03,24,07,52,2.20
2011,03,24,07,53,2.20
2011,03,24,07,54,2.20
2011,03,24,07,55,2.20
2011,03,24,07,56,2.10
2011,03,24,07,57,2.10
2011,03,24,07,58,2.10
2011,03,24,07,59,2.10
2011,03,24,08,00,2.00
2011,03,24,08,01,2.00
2011,03,24,08,02,2.00
2011,03,24,08,03,2.00
2011,03,24,08,04,2.00
2011,03,24,08,05,2.00
2011,03,24,08,06,2.00
2011,03,24,08,07,2.10
2011,03,24,08,08,2.10
2011,03,24,08,09,2.10
2011,03,24,08,10,2.10
2011,03,24,08,11,2.10
2011,03,24,08,12,2.10
2011,03,24,08,13,2.20
2011,03,24,08,14,2.20
2011,03,24,08,15,2.20
2011,03,24,08,16,2.30
2011,03,24,08,17,2.30
2011,03,24,08,18,2.30
2011,03,24,08,19,2.30
2011,03,24,08,20,2.30
2011,03,24,08,21,2.40
2011,03,24,08,22,2.40
2011,03,24,08,23,2.40
2011,03,24,08,24,2.40
2011,03,24,08,25,2.40
2011,03,24,08,26,2.40
2011,03,24,08,27,2.50
2011,03,24,08,28,2.50
2011,03,24,08,29,2.50
2011,03,24,08,30,2.60
2011,03,24,08,31,2.60
2011,03,24,08,32,2.70
2011,03,24,08,33,2.70
2011,03,24,08,34,2.70
2011,03,24,08,35,2.80
2011,03,24,08,36,2.80
2011,03,24,08,37,2.90
2011,03,24,08,38,3.00
2011,03,24,08,39,3.00
2011,03,24,08,40,3.10
2011,03,24,08,41,3.10
2011,03,24,08,42,3.20
2011,03,24,08,43,3.20
2011,03,24,08,44,3.30
2011,03,24,08,45,3.30
2011,03,24,08,46,3.40
2011,03,24,08,47,3.40
2011,03,24,08,48,3.50
2011,03,24,08,49,3.60
2011,03,24,08,50,3.60
2011,03,24,08,51,3.70
2011,03,24,08,52,3.80
2011,03,24,08,53,3.80
2011,03,24,08,54,3.90
2011,03,24,08,55,4.00
2011,03,24,08,56,4.10
2011,03,24,08,57,4.10
2011,03,24,08,58,4.20
2011,03,24,08,59,4.30
2011,03,24,09,00,4.30
2011,03,24,09,01,4.40
2011,03,24,09,02,4.50
2011,03,24,09,03,4.60
2011,03,24,09,04,4.70
2011,03,24,09,05,4.80
2011,03,24,09,06,4.80
2011,03,24,09,07,4.90
2011,03,24,09,08,5.00
2011,03,24,09,09,5.00
2011,03,24,09,10,5.10
2011,03,24,09,11,5.20
2011,03,24,09,12,5.30
2011,03,24,09,13,5.30
2011,03,24,09,14,5.40
2011,03,24,09,15,5.50
2011,03,24,09,16,5.50
2011,03,24,09,17,5.60
2011,03,24,09,18,5.70
2011,03,24,09,19,5.70
2011,03,24,09,20,5.80
2011,03,24,09,21,5.80
2011,03,24,09,22,5.90
2011,03,24,09,23,5.90
2011,03,24,09,24,6.00
2011,03,24,09,25,6.10
2011,03,24,09,26,6.10
2011,03,24,09,27,6.10
2011,03,24,09,28,6.20
2011,03,24,09,29,6.20
2011,03,24,09,30,6.20
2011,03,24,09,31,6.30
2011,03,24,09,32,6.30
2011,03,24,09,33,6.40
2011,03,24,09,34,6.40
2011,03,24,09,35,6.50
2011,03,24,09,36,6.60
2011,03,24,09,37,6.60
2011,03,24,09,38,6.70
2011,03,24,09,39,6.80
2011,03,24,09,40,6.80
2011,03,24,09,41,6.90
2011,03,24,09,42,7.00
2011,03,24,09,43,7.00
2011,03,24,09,44,7.10
2011,03,24,09,45,7.20
2011,03,24,09,46,7.20
2011,03,24,09,47,7.30
2011,03,24,09,48,7.40
2011,03,24,09,49,7.50
2011,03,24,09,50,7.50
2011,03,24,09,51,7.60
2011,03,24,09,52,7.60
2011,03,24,09,53,7.70
2011,03,24,09,54,7.70
2011,03,24,09,55,7.80
2011,03,24,09,56,7.80
2011,03,24,09,57,7.80
2011,03,24,09,58,7.90
2011,03,24,09,59,7.90
2011,03,24,10,00,8.00
2011,03,24,10,01,8.00
2011,03,24,10,02,8.10
2011,03,24,10,03,8.10
2011,03,24,10,04,8.20
2011,03,24,10,05,8.20
2011,03,24,10,06,8.30
2011,03,24,10,07,8.30
2011,03,24,10,08,8.40
2011,03,24,10,09,8.40
2011,03,24,10,10,8.50
2011,03,24,10,11,8.50
2011,03,24,10,12,8.60
2011,03,24,10,13,8.60
2011,03,24,10,14,8.70
2011,03,24,10,15,8.70
2011,03,24,10,16,8.70
2011,03,24,10,17,8.70
2011,03,24,10,18,8.80
2011,03,24,10,19,8.80
2011,03,24,10,20,8.80
2011,03,24,10,21,8.80
2011,03,24,10,22,8.80
2011,03,24,10,23,8.80
2011,03,24,10,24,8.80
2011,03,24,10,25,8.80
2011,03,24,10,26,8.80
2011,03,24,10,27,8.80
2011,03,24,10,28,8.90
2011,03,24,10,29,8.90
2011,03,24,10,30,9.00
2011,03,24,10,31,9.00
2011,03,24,10,32,9.00
2011,03,24,10,33,9.10
2011,03,24,10,34,9.10
2011,03,24,10,35,9.10
2011,03,24,10,36,9.10
2011,03,24,10,37,9.10
2011,03,24,10,38,9.10
2011,03,24,10,39,9.20
2011,03,24,10,40,9.20
2011,03,24,10,41,9.20
2011,03,24,10,42,9.30
2011,03,24,10,43,9.30
2011,03,24,10,44,9.40
2011,03,24,10,45,9.40
2011,03,24,10,46,9.50
2011,03,24,10,47,9.50
2011,03,24,10,48,9.60
2011,03,24,10,49,9.60
2011,03,24,10,50,9.60
2011,03,24,10,51,9.70
2011,03,24,10,52,9.70
2011,03,24,10,53,9.70
2011,03,24,10,54,9.70
2011,03,24,10,55,9.70
2011,03,24,10,56,9.70
2011,03,24,10,57,9.70
2011,03,24,10,58,9.70
2011,03,24,10,59,9.70
2011,03,24,11,00,9.70
2011,03,24,11,01,9.60
2011,03,24,11,02,9.60
2011,03,24,11,03,9.60
2011,03,24,11,04,9.60
2011,03,24,11,05,9.60
2011,03,24,11,06,9.60
2011,03,24,11,07,9.60
2011,03,24,11,08,9.60
2011,03,24,11,09,9.50
2011,03,24,11,10,9.50
2011,03,24,11,11,9.50
2011,03,24,11,12,9.40
2011,03,24,11,13,9.40
2011,03,24,11,14,9.40
2011,03,24,11,15,9.40
2011,03,24,11,16,9.40
2011,03,24,11,17,9.40
2011,03,24,11,18,9.40
2011,03,24,11,19,9.40
2011,03,24,11,20,9.40
2011,03,24,11,21,9.40
2011,03,24,11,22,9.40
2011,03,24,11,23,9.40
2011,03,24,11,24,9.40
2011,03,24,11,25,9.40
2011,03,24,11,26,9.40
2011,03,24,11,27,9.40
2011,03,24,11,28,9.40
2011,03,24,11,29,9.40
2011,03,24,11,30,9.40
2011,03,24,11,31,9.40
2011,03,24,11,32,9.40
2011,03,24,11,33,9.50
2011,03,24,11,34,9.50
2011,03,24,11,35,9.50
2011,03,24,11,36,9.50
2011,03,24,11,37,9.50
2011,03,24,11,38,9.50
2011,03,24,11,39,9.50
2011,03,24,11,40,9.60
2011,03,24,11,41,9.60
2011,03,24,11,42,9.60
2011,03,24,11,43,9.60
2011,03,24,11,44,9.60
2011,03,24,11,45,9.60
2011,03,24,11,46,9.60
2011,03,24,11,47,9.70
2011,03,24,11,48,9.70
2011,03,24,11,49,9.70
2011,03,24,11,50,9.70
2011,03,24,11,51,9.70
2011,03,24,11,52,9.80
2011,03,24,11,53,9.80
2011,03,24,11,54,9.80
2011,03,24,11,55,9.90
2011,03,24,11,56,9.90
2011,03,24,11,57,9.90
2011,03,24,11,58,9.90
2011,03,24,11,59,9.90
2011,03,24,12,00,9.90
2011,03,24,12,01,10.00
2011,03,24,12,02,10.00
2011,03,24,12,03,10.00
2011,03,24,12,04,10.10
2011,03,24,12,05,10.10
2011,03,24,12,06,10.10
2011,03,24,12,07,10.10
2011,03,24,12,08,10.10
2011,03,24,12,09,10.00
2011,03,24,12,10,10.00
2011,03,24,12,11,10.00
2011,03,24,12,12,10.00
2011,03,24,12,13,10.00
2011,03,24,12,14,10.00
2011,03,24,12,15,10.00
2011,03,24,12,16,9.90
2011,03,24,12,17,9.90
2011,03,24,12,18,10.00
2011,03,24,12,19,10.00
2011,03,24,12,20,10.00
2011,03,24,12,21,10.00
2011,03,24,12,22,10.00
2011,03,24,12,23,10.00
2011,03,24,12,24,9.90
2011,03,24,12,25,9.90
2011,03,24,12,26,9.90
2011,03,24,12,27,9.90
2011,03,24,12,28,9.80
2011,03,24,12,29,9.80
2011,03,24,12,30,9.80
2011,03,24,12,31,9.80
2011,03,24,12,32,9.80
2011,03,24,12,33,9.80
2011,03,24,12,34,9.80
2011,03,24,12,35,9.80
2011,03,24,12,36,9.80
2011,03,24,12,37,9.80
2011,03,24,12,38,9.80
2011,03,24,12,39,9.80
2011,03,24,12,40,9.80
2011,03,24,12,41,9.80
2011,03,24,12,42,9.80
2011,03,24,12,43,9.80
2011,03,24,12,44,9.90
2011,03,24,12,45,9.90
2011,03,24,12,46,9.90
2011,03,24,12,47,10.00
2011,03,24,12,48,10.00
2011,03,24,12,49,10.10
2011,03,24,12,50,10.10
2011,03,24,12,51,10.10
2011,03,24,12,52,10.10
2011,03,24,12,53,10.10
2011,03,24,12,54,10.10
2011,03,24,12,55,10.20
2011,03,24,12,56,10.20
2011,03,24,12,57,10.20
2011,03,24,12,58,10.20
2011,03,24,12,59,10.30
2011,03,24,13,00,10.30
2011,03,24,13,01,10.30
2011,03,24,13,02,10.30
2011,03,24,13,03,10.40
2011,03,24,13,04,10.40
2011,03,24,13,05,10.50
2011,03,24,13,06,10.50
2011,03,24,13,07,10.60
2011,03,24,13,08,10.70
2011,03,24,13,09,10.70
2011,03,24,13,10,10.70
2011,03,24,13,11,10.70
2011,03,24,13,12,10.70
2011,03,24,13,13,10.70
2011,03,24,13,14,10.70
2011,03,24,13,15,10.70
2011,03,24,13,16,10.80
2011,03,24,13,17,10.80
2011,03,24,13,18,10.90
2011,03,24,13,19,10.90
2011,03,24,13,20,10.90
2011,03,24,13,21,10.90
2011,03,24,13,22,10.90
2011,03,24,13,23,10.90
2011,03,24,13,24,10.90
2011,03,24,13,25,11.00
2011,03,24,13,26,11.00
2011,03,24,13,27,11.10
2011,03,24,13,28,11.20
2011,03,24,13,29,11.30
2011,03,24,13,30,11.30
2011,03,24,13,31,11.40
2011,03,24,13,32,11.50
2011,03,24,13,33,11.50
2011,03,24,13,34,11.60
2011,03,24,13,35,11.70
2011,03,24,13,36,11.70
2011,03,24,13,37,11.80
2011,03,24,13,38,11.90
2011,03,24,13,39,11.90
2011,03,24,13,40,11.90
2011,03,24,13,41,12.00
2011,03,24,13,42,12.10
2011,03,24,13,43,12.10
2011,03,24,13,44,12.10
2011,03,24,13,45,12.10
2011,03,24,13,46,12.10
2011,03,24,13,47,12.10
2011,03,24,13,48,12.00
2011,03,24,13,49,12.00
2011,03,24,13,50,11.90
2011,03,24,13,51,11.90
2011,03,24,13,52,11.90
2011,03,24,13,53,11.90
2011,03,24,13,54,11.90
2011,03,24,13,55,11.90
2011,03,24,13,56,11.80
2011,03,24,13,57,11.70
2011,03,24,13,58,11.70
2011,03,24,13,59,11.60
2011,03,24,14,00,11.60
2011,03,24,14,01,11.50
2011,03,24,14,02,11.50
2011,03,24,14,03,11.50
2011,03,24,14,04,11.50
2011,03,24,14,05,11.60
2011,03,24,14,06,11.60
2011,03,24,14,07,11.70
2011,03,24,14,08,11.80
2011,03,24,14,09,11.80
2011,03,24,14,10,11.80
2011,03,24,14,11,11.90
2011,03,24,14,12,11.90
2011,03,24,14,13,11.90
2011,03,24,14,14,11.90
2011,03,24,14,15,11.90
2011,03,24,14,16,12.10
2011,03,24,14,17,12.20
2011,03,24,14,18,12.20
2011,03,24,14,19,12.30
2011,03,24,14,20,12.40
2011,03,24,14,21,12.50
2011,03,24,14,22,12.60
2011,03,24,14,23,12.70
2011,03,24,14,24,12.70
2011,03,24,14,25,12.70
2011,03,24,14,26,12.70
2011,03,24,14,27,12.70
2011,03,24,14,28,12.70
2011,03,24,14,29,12.70
2011,03,24,14,30,12.70
2011,03,24,14,31,12.70
2011,03,24,14,32,12.70
2011,03,24,14,33,12.70
2011,03,24,14,34,12.70
2011,03,24,14,35,12.80
2011,03,24,14,36,12.80
2011,03,24,14,37,12.80
2011,03,24,14,38,12.90
2011,03,24,14,39,12.90
2011,03,24,14,40,12.90
2011,03,24,14,41,12.80
2011,03,24,14,42,12.80
2011,03,24,14,43,12.80
2011,03,24,14,44,12.80
2011,03,24,14,45,12.70
2011,03,24,14,46,12.70
2011,03,24,14,47,12.70
2011,03,24,14,48,12.70
2011,03,24,14,49,12.60
2011,03,24,14,50,12.60
2011,03,24,14,51,12.60
2011,03,24,14,52,12.60
2011,03,24,14,53,12.50
2011,03,24,14,54,12.50
2011,03,24,14,55,12.50
2011,03,24,14,56,12.60
2011,03,24,14,57,12.60
2011,03,24,14,58,12.70
2011,03,24,14,59,12.80
2011,03,24,15,00,12.80
2011,03,24,15,01,12.80
2011,03,24,15,02,12.90
2011,03,24,15,03,12.90
2011,03,24,15,04,13.00
2011,03,24,15,05,13.00
2011,03,24,15,06,13.10
2011,03,24,15,07,13.10
2011,03,24,15,08,13.00
2011,03,24,15,09,13.00
2011,03,24,15,10,13.00
2011,03,24,15,11,12.90
2011,03,24,15,12,12.90
2011,03,24,15,13,12.90
2011,03,24,15,14,12.90
2011,03,24,15,15,12.90
2011,03,24,15,16,12.90
2011,03,24,15,17,12.90
2011,03,24,15,18,12.90
2011,03,24,15,19,12.90
2011,03,24,15,20,12.90
2011,03,24,15,21,12.90
2011,03,24,15,22,13.00
2011,03,24,15,23,13.00
2011,03,24,15,24,13.10
2011,03,24,15,25,13.10
2011,03,24,15,26,13.10
2011,03,24,15,27,13.20
2011,03,24,15,28,13.20
2011,03,24,15,29,13.20
2011,03,24,15,30,13.20
2011,03,24,15,31,13.20
2011,03,24,15,32,13.30
2011,03,24,15,33,13.30
2011,03,24,15,34,13.20
2011,03,24,15,35,13.10
2011,03,24,15,36,13.10
2011,03,24,15,37,13.10
2011,03,24,15,38,13.20
2011,03,24,15,39,13.30
2011,03,24,15,40,13.30
2011,03,24,15,41,13.30
2011,03,24,15,42,13.40
2011,03,24,15,43,13.40
2011,03,24,15,44,13.40
2011,03,24,15,45,13.50
2011,03,24,15,46,13.50
2011,03,24,15,47,13.60
2011,03,24,15,48,13.70
2011,03,24,15,49,13.80
2011,03,24,15,50,13.80
2011,03,24,15,51,13.80
2011,03,24,15,52,13.80
2011,03,24,15,53,13.80
2011,03,24,15,54,13.80
2011,03,24,15,55,13.80
2011,03,24,15,56,13.80
2011,03,24,15,57,13.90
2011,03,24,15,58,13.90
2011,03,24,15,59,13.90
2011,03,24,16,00,14.00
2011,03,24,16,01,14.10
2011,03,24,16,02,14.10
2011,03,24,16,03,14.10
2011,03,24,16,04,14.00
2011,03,24,16,05,14.00
2011,03,24,16,06,14.00
2011,03,24,16,07,14.00
2011,03,24,16,08,14.00
2011,03,24,16,09,13.90
2011,03,24,16,10,13.80
2011,03,24,16,11,13.70
2011,03,24,16,12,13.70
2011,03,24,16,13,13.60
2011,03,24,16,14,13.50
2011,03,24,16,15,13.40
2011,03,24,16,16,13.40
2011,03,24,16,17,13.40
2011,03,24,16,18,13.40
2011,03,24,16,19,13.40
2011,03,24,16,20,13.40
2011,03,24,16,21,13.40
2011,03,24,16,22,13.30
2011,03,24,16,23,13.30
2011,03,24,16,24,13.30
2011,03,24,16,25,13.30
2011,03,24,16,26,13.30
2011,03,24,16,27,13.30
2011,03,24,16,28,13.30
2011,03,24,16,29,13.30
2011,03,24,16,30,13.30
2011,03,24,16,31,13.30
2011,03,24,16,32,13.30
2011,03,24,16,33,13.40
2011,03,24,16,34,13.40
2011,03,24,16,35,13.40
2011,03,24,16,36,13.50
2011,03,24,16,37,13.60
2011,03,24,16,38,13.70
2011,03,24,16,39,13.80
2011,03,24,16,40,13.80
2011,03,24,16,41,13.80
2011,03,24,16,42,13.80
2011,03,24,16,43,13.90
2011,03,24,16,44,13.90
2011,03,24,16,45,13.90
2011,03,24,16,46,13.90
2011,03,24,16,47,13.90
2011,03,24,16,48,13.90
2011,03,24,16,49,13.90
2011,03,24,16,50,13.90
2011,03,24,16,51,13.80
2011,03,24,16,52,13.70
2011,03,24,16,53,13.60
2011,03,24,16,54,13.50
2011,03,24,16,55,13.50
2011,03,24,16,56,13.40
2011,03,24,16,57,13.30
2011,03,24,16,58,13.20
2011,03,24,16,59,13.20
2011,03,24,17,00,13.20
2011,03,24,17,01,13.30
2011,03,24,17,02,13.30
2011,03,24,17,03,13.20
2011,03,24,17,04,13.20
2011,03,24,17,05,13.20
2011,03,24,17,06,13.20
2011,03,24,17,07,13.30
2011,03,24,17,08,13.30
2011,03,24,17,09,13.20
2011,03,24,17,10,13.20
2011,03,24,17,11,13.10
2011,03,24,17,12,13.00
2011,03,24,17,13,12.90
2011,03,24,17,14,12.90
2011,03,24,17,15,12.80
2011,03,24,17,16,12.80
2011,03,24,17,17,12.80
2011,03,24,17,18,12.80
2011,03,24,17,19,12.80
2011,03,24,17,20,12.80
2011,03,24,17,21,12.80
2011,03,24,17,22,12.70
2011,03,24,17,23,12.70
2011,03,24,17,24,12.70
2011,03,24,17,25,12.70
2011,03,24,17,26,12.70
2011,03,24,17,27,12.70
2011,03,24,17,28,12.60
2011,03,24,17,29,12.60
2011,03,24,17,30,12.60
2011,03,24,17,31,12.60
2011,03,24,17,32,12.50
2011,03,24,17,33,12.50
2011,03,24,17,34,12.40
2011,03,24,17,35,12.40
2011,03,24,17,36,12.30
2011,03,24,17,37,12.20
2011,03,24,17,38,12.20
2011,03,24,17,39,12.10
2011,03,24,17,40,12.10
2011,03,24,17,41,12.00
2011,03,24,17,42,11.90
2011,03,24,17,43,11.80
2011,03,24,17,44,11.70
2011,03,24,17,45,11.70
2011,03,24,17,46,11.60
2011,03,24,17,47,11.60
2011,03,24,17,48,11.50
2011,03,24,17,49,11.40
2011,03,24,17,50,11.40
2011,03,24,17,51,11.30